Weather History for Perryton, TX

Change the Weather History Date:

Wednesday, November 16, 2011

  Actual Average Record
Temperature  
Mean Temperature 38 °F -  
Max Temperature 44 °F 56 °F 79 °F (1965)
Min Temperature 32 °F 27 °F 13 °F (1989)
Degree Days  
Heating Degree Days 27    
Moisture  
Dew Point 21 °F    
Average Humidity 54    
Maximum Humidity 81    
Minimum Humidity 29    
Precipitation  
Precipitation 0.00 in - - ()
Sea Level Pressure  
Sea Level Pressure 30.14 in    
Wind  
Wind Speed 12 mph (NE)    
Max Wind Speed 22 mph    
Max Gust Speed 28 mph    
Visibility 10 miles    
Events      
Averages and records for this station are not official NWS values.
T = Trace of Precipitation, MM = Missing Value Source: NWS Daily Summary

Daily Weather History Graph

Daily Weather History Graph

Search for Another Location

Airport:

Trip Planner

Search our weather history database for the weather conditions in past years. The results will help you decide how hot, cold, wet, or windy it might be!

Date:

Astronomy

Nov. 16, 2011 Rise Set
Actual Time 7:21 AM CST 5:33 PM CST
Civil Twilight 6:53 AM CST 6:01 PM CST
Nautical Twilight 6:22 AM CST 6:32 PM CST
Astronomical Twilight 5:51 AM CST 7:03 PM CST
Moon 10:48 PM CST (11/16) 11:59 AM CST (11/16)
Length of Visible Light 11h 07m
Length of Day
10h 12m
Waning Gibbous, 70% of the Moon is Illuminated
Nov 16
Waning Gibbous
Nov 18
Last Quarter
Nov 25
New
Dec 2
First Quarter
Dec 10
Full

Hourly Weather History & Observations

Time (CST) Temp. Windchill Dew Point Humidity Pressure Visibility Wind Dir Wind Speed Gust Speed Precip Events Conditions
12:15 AM 37.4 °F 29.8 °F 26.6 °F 65% 29.96 in 10.0 mi ENE 11.5 mph - N/A   Clear
12:35 AM 37.4 °F 32.1 °F 26.6 °F 65% 29.96 in 10.0 mi ENE 6.9 mph - N/A   Clear
12:55 AM 35.6 °F 29.2 °F 28.4 °F 75% 29.97 in 10.0 mi NE 8.1 mph - N/A   Clear
1:15 AM 35.6 °F 29.9 °F 26.6 °F 70% 29.98 in 10.0 mi ENE 6.9 mph - N/A   Clear
1:35 AM 33.8 °F 27.7 °F 26.6 °F 75% 29.97 in 10.0 mi ENE 6.9 mph - N/A   Clear
2:15 AM 33.8 °F 27.7 °F 26.6 °F 75% 29.96 in 10.0 mi East 6.9 mph - N/A   Clear
2:35 AM 32.0 °F 25.6 °F 26.6 °F 80% 29.97 in 10.0 mi ENE 6.9 mph - N/A   Scattered Clouds
2:55 AM 33.8 °F 26.4 °F 28.4 °F 81% 29.96 in 10.0 mi East 9.2 mph - N/A   Overcast
3:15 AM 35.6 °F 27.5 °F 28.4 °F 75% 29.97 in 10.0 mi ENE 11.5 mph - N/A   Overcast
3:35 AM 37.4 °F 29.3 °F 28.4 °F 70% 29.97 in 10.0 mi ENE 12.7 mph - N/A   Overcast
3:55 AM 37.4 °F 29.8 °F 28.4 °F 70% 29.97 in 10.0 mi ENE 11.5 mph - N/A   Overcast
4:15 AM 37.4 °F 30.3 °F 28.4 °F 70% 29.97 in 10.0 mi ENE 10.4 mph - N/A   Mostly Cloudy
4:35 AM 37.4 °F 30.3 °F 28.4 °F 70% 29.98 in 10.0 mi ENE 10.4 mph - N/A   Scattered Clouds
4:55 AM 37.4 °F 30.3 °F 28.4 °F 70% 29.99 in 10.0 mi ENE 10.4 mph - N/A   Clear
5:15 AM 35.6 °F 27.5 °F 28.4 °F 75% 30.00 in 10.0 mi ENE 11.5 mph 16.1 mph N/A   Scattered Clouds
5:35 AM 35.6 °F 27.5 °F 28.4 °F 75% 30.02 in 10.0 mi NE 11.5 mph - N/A   Scattered Clouds
5:55 AM 35.6 °F 27.1 °F 28.4 °F 75% 30.03 in 10.0 mi NE 12.7 mph 17.3 mph N/A   Clear
6:15 AM 35.6 °F 26.6 °F 26.6 °F 70% 30.05 in 10.0 mi NE 13.8 mph - N/A   Clear
6:35 AM 35.6 °F 26.6 °F 26.6 °F 70% 30.07 in 10.0 mi NE 13.8 mph - N/A   Scattered Clouds
6:55 AM 35.6 °F 27.1 °F 26.6 °F 70% 30.09 in 10.0 mi NNE 12.7 mph - N/A   Scattered Clouds
7:15 AM 35.6 °F 27.5 °F 26.6 °F 70% 30.10 in 10.0 mi NNE 11.5 mph - N/A   Scattered Clouds
7:35 AM 35.6 °F 27.1 °F 26.6 °F 70% 30.12 in 10.0 mi NNE 12.7 mph - N/A   Scattered Clouds
7:55 AM 35.6 °F 25.9 °F 24.8 °F 65% 30.13 in 10.0 mi NNE 16.1 mph - N/A   Mostly Cloudy
8:15 AM 35.6 °F 24.8 °F 24.8 °F 65% 30.14 in 10.0 mi NE 19.6 mph - N/A   Overcast
8:35 AM 35.6 °F 24.8 °F 24.8 °F 65% 30.15 in 10.0 mi NNE 19.6 mph 26.5 mph N/A   Overcast
8:55 AM 35.6 °F 24.5 °F 23.0 °F 60% 30.17 in 10.0 mi NE 20.7 mph 26.5 mph N/A   Overcast
9:15 AM 35.6 °F 24.5 °F 23.0 °F 60% 30.17 in 10.0 mi NE 20.7 mph 25.3 mph N/A   Overcast
9:35 AM 35.6 °F 25.5 °F 21.2 °F 56% 30.19 in 10.0 mi NE 17.3 mph 21.9 mph N/A   Overcast
9:55 AM 35.6 °F 24.8 °F 21.2 °F 56% 30.19 in 10.0 mi NE 19.6 mph 23.0 mph N/A   Overcast
10:15 AM 37.4 °F 26.9 °F 19.4 °F 48% 30.19 in 10.0 mi NE 20.7 mph - N/A   Overcast
10:35 AM 37.4 °F 27.2 °F 17.6 °F 45% 30.21 in 10.0 mi ENE 19.6 mph 25.3 mph N/A   Overcast
10:55 AM 39.2 °F 29.0 °F 14.0 °F 36% 30.21 in 10.0 mi ENE 21.9 mph 26.5 mph N/A   Overcast
11:15 AM 41.0 °F 31.6 °F 14.0 °F 33% 30.21 in 10.0 mi ENE 20.7 mph 26.5 mph N/A   Mostly Cloudy
11:35 AM 41.0 °F 31.9 °F 14.0 °F 33% 30.21 in 10.0 mi ENE 19.6 mph 27.6 mph N/A   Mostly Cloudy
11:55 AM 42.8 °F 34.0 °F 12.2 °F 29% 30.22 in 10.0 mi East 20.7 mph 25.3 mph N/A   Mostly Cloudy
12:15 PM 42.8 °F 34.5 °F 14.0 °F 31% 30.22 in 10.0 mi NE 18.4 mph 26.5 mph N/A   Overcast
12:35 PM 42.8 °F 35.8 °F 14.0 °F 31% 30.23 in 10.0 mi NNE 13.8 mph 23.0 mph N/A   Scattered Clouds
12:55 PM 42.8 °F 35.4 °F 14.0 °F 31% 30.23 in 10.0 mi NE 15.0 mph 18.4 mph N/A   Scattered Clouds
1:15 PM 42.8 °F 36.6 °F 14.0 °F 31% 30.23 in 10.0 mi NE 11.5 mph 16.1 mph N/A   Scattered Clouds
1:35 PM 42.8 °F 37.0 °F 14.0 °F 31% 30.23 in 10.0 mi NNE 10.4 mph 18.4 mph N/A   Scattered Clouds
1:55 PM 42.8 °F 37.0 °F 14.0 °F 31% 30.24 in 10.0 mi NNE 10.4 mph 19.6 mph N/A   Clear
2:15 PM 42.8 °F 35.8 °F 14.0 °F 31% 30.24 in 10.0 mi NNE 13.8 mph 19.6 mph N/A   Clear
2:35 PM 44.6 °F 38.1 °F 14.0 °F 29% 30.24 in 10.0 mi NNE 13.8 mph 20.7 mph N/A   Clear
2:55 PM 42.8 °F 36.6 °F 14.0 °F 31% 30.25 in 10.0 mi NE 11.5 mph 20.7 mph N/A   Scattered Clouds
3:15 PM 42.8 °F 36.2 °F 14.0 °F 31% 30.24 in 10.0 mi NE 12.7 mph 18.4 mph N/A   Mostly Cloudy
3:35 PM 42.8 °F 36.6 °F 14.0 °F 31% 30.25 in 10.0 mi NE 11.5 mph 18.4 mph N/A   Scattered Clouds
3:55 PM 42.8 °F 37.0 °F 14.0 °F 31% 30.26 in 10.0 mi NE 10.4 mph - N/A   Clear
4:15 PM 42.8 °F 36.2 °F 14.0 °F 31% 30.27 in 10.0 mi NE 12.7 mph - N/A   Clear
4:35 PM 42.8 °F 36.6 °F 14.0 °F 31% 30.28 in 10.0 mi NNE 11.5 mph 16.1 mph N/A   Clear
4:55 PM 41.0 °F 33.1 °F 15.8 °F 36% 30.29 in 10.0 mi NNE 15.0 mph - N/A   Clear
5:15 PM 39.2 °F 32.5 °F 17.6 °F 42% 30.30 in 10.0 mi NNE 10.4 mph - N/A   Clear
5:35 PM 37.4 °F 30.3 °F 19.4 °F 48% 30.31 in 10.0 mi NE 10.4 mph - N/A   Clear
5:55 PM 35.6 °F 29.2 °F 21.2 °F 56% 30.33 in 10.0 mi NE 8.1 mph - N/A   Clear
6:15 PM 33.8 °F 28.6 °F 21.2 °F 60% 30.34 in 10.0 mi NE 5.8 mph - N/A   Clear
6:35 PM 33.8 °F 27.7 °F 21.2 °F 60% 30.35 in 10.0 mi NE 6.9 mph - N/A   Clear
6:55 PM 32.0 °F 24.8 °F 21.2 °F 64% 30.34 in 10.0 mi NE 8.1 mph - N/A   Clear
7:15 PM 32.0 °F 24.2 °F 21.2 °F 64% 30.35 in 10.0 mi NE 9.2 mph - N/A   Clear
7:35 PM 32.0 °F 25.6 °F 21.2 °F 64% 30.36 in 10.0 mi NE 6.9 mph - N/A   Clear
7:55 PM 32.0 °F 26.4 °F 23.0 °F 69% 30.36 in 10.0 mi NE 5.8 mph - N/A   Clear
8:15 PM 30.2 °F 24.3 °F 23.0 °F 75% 30.37 in 10.0 mi ENE 5.8 mph - N/A   Clear
8:35 PM 30.2 °F 26.7 °F 21.2 °F 69% 30.38 in 10.0 mi ENE 3.5 mph - N/A   Clear
8:55 PM 30.2 °F 26.7 °F 23.0 °F 75% 30.39 in 10.0 mi East 3.5 mph - N/A   Clear
9:35 PM 30.2 °F 26.7 °F 23.0 °F 75% 30.40 in 10.0 mi East 3.5 mph - N/A   Clear
9:55 PM 28.4 °F - 21.2 °F 74% 30.40 in 10.0 mi Calm Calm - N/A   Clear
10:15 PM 26.6 °F - 19.4 °F 74% 30.41 in 10.0 mi Calm Calm - N/A   Clear
10:35 PM 23.0 °F - 19.4 °F 86% 30.41 in 10.0 mi Calm Calm - N/A   Clear
10:55 PM 24.8 °F 20.5 °F 19.4 °F 80% 30.42 in 10.0 mi South 3.5 mph - N/A   Clear
11:15 PM 24.8 °F 19.1 °F 19.4 °F 80% 30.42 in 10.0 mi South 4.6 mph - N/A   Clear
11:35 PM 24.8 °F 19.1 °F 21.2 °F 86% 30.41 in 10.0 mi South 4.6 mph - N/A   Clear